Location: Valea Babei
(45.6333°N, 22.6000°E)
Time: 08:23:28
(UTC+00:00)

Daily predictions for brighter satellites

Satellite Brightness Start Highest point End
(mag) Time Altitude Azimuth Time Altitude Azimuth Time Altitude Azimuth
Cosmos 1464 Rocket 4.3 18:22:05 10° N 18:28:18 54° ENE 18:34:22 10° SSE
USA 308 1.7 18:28:49 10° NW 18:31:16 86° NNE 18:34:26 10° ESE
Aureole 2 3.9 18:29:09 10° NNW 18:32:05 81° ENE 18:34:56 10° SSE
ATLAS 2AS CENTAUR R/B 2.9 18:28:50 10° SW 18:36:17 89° SE 18:43:28 10° NE
Cosmos 1812 4.1 18:33:01 10° SSW 18:36:24 40° WNW 18:39:50 10° N
Okean O Rocket 1.8 18:34:24 10° S 18:38:48 75° WSW 18:43:16 10° NNW
Intercosmos 24 4.0 18:35:46 10° S 18:39:24 88° W 18:44:01 10° N
Terra 3.2 18:35:56 10° ESE 18:39:36 23° ENE 18:43:17 10° NNE
MOS 1 4.5 18:36:08 10° SSE 18:41:41 59° ENE 18:47:16 10° N
ERS-1 Rocket 4.0 18:39:27 10° SE 18:43:49 31° ENE 18:48:12 10° N
USA 281 4.4 18:41:37 10° ESE 18:47:10 30° NE 18:52:45 10° N
NOSS 3-1 (A) 4.2 18:44:58 10° NW 18:52:15 72° NE 19:00:46 11° SE
NOSS 3-1 (C) 4.3 18:45:13 10° NW 18:52:38 74° SW 19:01:35 10° SSE
Cosmos 1943 Rocket 2.4 18:47:35 10° NNW 18:53:16 76° WSW 18:58:52 10° SSE
Cosmos 1782 2.7 18:50:01 10° S 18:53:49 87° W 18:57:39 10° N
Cosmos 972 4.4 18:50:28 10° S 18:55:18 62° ESE 19:00:10 10° NNE
CZ-4B R/B 4.5 18:52:08 10° SSW 18:57:07 38° W 19:02:05 10° NNW
Cosmos 2278 Rocket 3.3 18:52:20 10° NW 18:57:39 42° WSW 19:02:54 10° S
Cosmos 2297 4.4 18:59:18 10° NNW 19:04:46 42° NE 19:09:29 13° ESE
Cosmos 1743 3.9 19:01:55 10° NNE 19:04:56 24° ENE 19:07:04 15° ESE
ISS -1.8 19:03:07 10° WNW 19:06:03 28° N 19:09:00 10° ENE
USA 245 3.5 19:05:07 17° ESE 19:06:06 22° ENE 19:07:56 10° NNE
Cosmos 2112 Rocket 4.2 19:03:03 10° S 19:08:11 50° ESE 19:13:18 10° NNE
Cosmos 2034 Rocket 4.0 19:05:51 10° N 19:12:05 78° E 19:18:20 10° SSE
Okean-O 3.0 19:09:10 10° S 19:13:32 62° W 19:17:55 10° NNW
Cosmos 1766 Rocket 4.2 19:11:10 10° N 19:15:23 41° ENE 19:18:27 17° SE
Spot 2 Rocket 4.0 19:13:58 15° SE 19:17:50 46° ENE 19:22:39 10° N
Cosmos-2242 4.3 19:14:18 10° SSW 19:18:17 41° WNW 19:22:19 10° N
Cosmos 1680 Rocket 3.5 19:13:09 10° SSW 19:18:25 72° ESE 19:23:41 10° NNE
USA 290 2.1 19:15:24 10° NNW 19:18:38 83° ENE 19:20:45 20° SSE
Gbstr 26 Del rocket 4.4 19:16:37 10° WNW 19:22:21 40° SW 19:26:07 16° SSE
Tsikada Rocket 4.0 19:16:59 10° S 19:23:03 63° E 19:29:12 10° NNE
USA 32 4.3 19:20:43 14° SSE 19:25:05 50° E 19:30:08 10° NNE
Cosmos 1726 3.7 19:23:21 10° NE 19:25:14 15° ENE 19:26:04 14° E
SL-16 R/B 2.1 19:26:28 10° SSW 19:32:07 80° ESE 19:37:49 10° NNE
MetOp-B 4.5 19:30:35 11° S 19:35:46 63° WSW 19:41:07 10° NNW
CZ-4C R/B 4.5 19:33:11 10° N 19:36:42 42° WNW 19:40:20 10° SW
MOS 1 Rocket 3.8 19:34:46 21° SE 19:37:59 53° ENE 19:43:05 10° N
Cosmos 2056 Rocket 3.5 19:34:03 10° NNW 19:39:29 88° ENE 19:43:11 21° SSE
Ariane Rocket 3.0 19:36:41 20° SSE 19:40:13 71° ENE 19:45:17 10° N
Lacrosse 5 2.0 19:35:44 10° NW 19:40:48 66° SW 19:43:56 23° SSE
IRS-1C Rocket 4.5 19:36:47 12° S 19:41:34 62° WSW 19:46:48 10° NNW
Cosmos 1624 Rocket 4.0 19:36:37 10° NNW 19:41:50 90° WSW 19:45:19 21° SSE
USA 276 2.6 19:41:52 10° NW 19:43:57 35° NNE 19:44:46 25° ENE
Lacrosse 5 rocket 2.3 19:41:07 10° WSW 19:45:19 51° NW 19:49:27 10° NE
Cosmos 1536 4.1 19:42:31 10° NNE 19:45:45 25° ENE 19:46:58 21° ESE
Cosmos 44 3.1 19:40:56 10° NW 19:45:49 89° SW 19:48:23 26° SSE
Cosmos 2369 Rocket 2.3 19:41:38 10° NNW 19:47:12 64° ENE 19:50:37 24° SE
Spot 1 4.4 19:43:53 10° NNE 19:47:46 42° E 19:49:25 28° SSE
Cosmos 2221 2.7 19:45:53 10° SSW 19:50:07 72° W 19:54:28 10° N
Resurs 01 Rocket 4.4 19:52:11 10° WSW 19:53:46 12° W 19:55:22 10° WNW
Cosmos 2084 3.0 19:52:31 10° NW 19:56:17 82° NE 19:57:45 36° SE
BREEZE-M DEB (TANK) 2.5 19:58:59 10° W 20:01:29 49° NNW 20:02:58 16° ENE
ATLAS 3B R/B 3.4 19:56:59 10° NW 20:04:38 57° WSW 20:09:48 22° S
BREEZE-M DEB (TANK) 4.0 20:00:52 10° WSW 20:04:51 85° SSE 20:17:22 10° E
Cosmos 921 Rocket 3.1 20:00:58 13° SSW 20:04:59 81° WNW 20:09:31 10° NNE
SPOT 5 4.3 20:02:21 10° SSW 20:06:29 30° W 20:10:28 10° NW
GEOS 3 Rocket 3.7 20:01:40 10° NE 20:06:52 78° NW 20:11:57 10° SW
Aureole 3 Rocket 3.9 20:04:03 10° NNW 20:07:35 44° W 20:10:55 17° SSW
Okean 3 Rocket 3.5 20:04:29 10° N 20:08:55 82° E 20:10:46 34° SSE
SL-8 R/B 3.8 20:10:34 10° SW 20:15:08 48° SSE 20:19:43 10° ENE
Cosmos 1943 3.3 20:12:15 24° S 20:15:34 57° ESE 20:21:08 10° NNE
Terra 2.6 20:13:56 20° SSW 20:16:55 45° W 20:21:27 10° NNW
Landsat 5 3.1 20:13:38 10° NNE 20:17:25 82° ESE 20:18:42 40° S
Cosmos 1500 Rocket 4.0 20:15:40 10° N 20:19:50 45° ENE 20:20:55 37° ESE
Cosmos 1048 Rocket 3.9 20:18:53 27° S 20:21:42 70° ESE 20:26:49 10° NNE
ERS-1 Rocket 4.2 20:18:55 16° SSW 20:22:28 36° W 20:27:07 10° NNW
Meteor 1-10 Rocket 4.2 20:19:57 27° S 20:23:10 74° E 20:28:51 10° NNE
Cosmos 1656 Rocket 4.1 20:19:24 10° NW 20:24:41 52° WSW 20:27:23 27° S
Cosmos 494 Rocket 4.0 20:21:03 16° SSW 20:25:07 81° WNW 20:30:16 10° NNE
Cosmos 1733 4.0 20:22:49 10° N 20:26:02 32° ENE 20:26:10 32° E
Cosmos 1842 Rocket 3.8 20:24:38 26° SSW 20:27:03 69° W 20:31:30 10° N
SPOT 3 Rocket 4.1 20:24:08 23° SSW 20:27:04 50° W 20:32:04 10° NNW
H-2A R/B 4.1 20:26:30 20° E 20:27:33 22° ENE 20:30:46 10° NNE
Cosmos 1805 Rocket 4.0 20:24:30 10° N 20:28:44 46° ENE 20:29:44 39° ESE
Meteor 2-9 Rocket 4.5 20:24:55 10° N 20:30:41 61° ENE 20:33:05 35° SE
USA 281 3.4 20:27:32 28° S 20:31:14 66° WSW 20:37:49 10° NNW
Cosmos 1151 Rocket 3.9 20:31:54 32° E 20:32:13 32° E 20:36:07 10° NNE
Meteor 1-11 Rocket 3.7 20:27:40 10° N 20:33:19 81° E 20:35:44 36° SSE
USA 59 Rocket 2.1 20:30:31 10° N 20:33:20 19° NE 20:36:26 11° E
Meteor 1-19 Rocket 4.5 20:31:47 35° SSE 20:34:09 57° E 20:39:51 10° NNE
Meteor 2-10 4.2 20:31:08 10° N 20:36:43 65° ENE 20:38:41 39° SE
ARIANE 5 R/B 3.2 20:38:37 37° ESE 20:39:35 44° ENE 20:43:42 10° N
Cosmos 1331 Rocket 3.9 20:36:04 10° NNW 20:41:21 82° ENE 20:43:05 43° SSE
Cosmos 1340 Rocket 3.2 20:42:11 46° E 20:42:14 46° E 20:46:05 10° NNE
ISS -3.0 20:39:56 10° NW 20:43:12 48° NNE 20:43:45 43° NE
Cosmos 1110 Rocket 4.0 20:37:51 10° NNW 20:43:12 89° WSW 20:45:01 43° SSE
Cosmos 2279 Rocket 4.4 20:41:32 10° NNW 20:47:35 58° W 20:50:55 27° SSW
CZ-2C R/B 3.8 20:44:11 10° NNE 20:48:39 55° E 20:49:14 51° SE
Nadezhda 4 Rocket 3.9 20:46:07 37° SSE 20:48:41 71° E 20:54:53 10° NNE
USA 229 DEB 4.2 20:50:49 10° NW 20:58:12 60° WSW 21:01:46 34° S
USA 229 4.2 20:50:55 10° NW 20:58:18 61° WSW 21:01:53 34° S
Cosmos 1726 3.3 20:55:49 10° NNW 20:58:30 26° W 20:58:35 26° W
IRIDIUM 106 4.5 20:57:56 10° N 21:03:07 59° E 21:04:17 47° SE
Cosmos 1805 3.5 21:02:09 10° N 21:05:37 52° ENE 21:05:37 52° ENE
Cosmos 1743 Rocket 3.6 21:05:50 10° NNW 21:10:12 70° W 21:10:51 59° SSW
Sich 1 3.3 21:10:56 10° NNW 21:15:13 56° W 21:15:51 50° SW
Cosmos 1603 3.8 21:15:41 31° SW 21:18:31 74° WNW 21:24:15 10° NNE
NOSS 2-1 (C) 4.4 21:17:31 10° NNW 21:21:10 42° NE 21:22:32 33° E
Cosmos 1536 4.4 21:18:27 10° NW 21:21:40 25° W 21:22:15 24° WSW
USA 267 3.3 21:15:18 10° ENE 21:21:41 52° SE 21:23:24 42° S
Cosmos 1975 2.9 21:18:11 10° N 21:21:58 64° ENE 21:21:58 64° ENE
Lacrosse 5 4.1 21:21:06 10° W 21:22:54 12° WSW 21:23:08 12° WSW
Lacrosse 5 rocket 4.1 21:21:18 10° WNW 21:24:28 20° NNW 21:27:34 10° NE
Meteor 1-27 Rocket 4.1 21:22:18 32° SW 21:24:43 55° WNW 21:30:09 10° N
Cosmos 1452 Rocket 4.4 21:20:46 10° NW 21:25:34 38° WSW 21:26:45 33° SW
Cosmos 1340 3.4 21:26:06 10° NNW 21:28:49 41° WNW 21:28:49 41° WNW
Cosmos 2026 Rocket 3.9 21:27:52 47° S 21:29:49 78° E 21:36:07 10° N
Cosmos 1626 3.3 21:31:50 30° NE 21:31:50 30° NE 21:33:47 10° NNE
Cosmos 2369 Rocket 3.9 21:26:41 10° NW 21:30:40 20° W 21:32:23 18° SW
PSLV R/B 4.1 21:28:04 10° N 21:32:07 64° WNW 21:32:26 61° WSW
Cosmos 1833 Rocket 4.2 21:35:31 21° E 21:35:31 21° E 21:39:26 10° NE
BREEZE-M DEB (TANK) 4.3 21:19:32 10° SW 21:41:29 66° SSE 21:46:30 10° ENE
USA 306 3.0 21:41:38 10° NW 21:45:08 63° NNW 21:45:08 63° NNW
Meteor 1-18 Rocket 4.3 21:51:30 53° SSW 21:53:01 87° W 21:59:00 10° N
Cosmos 1553 Rocket 4.0 21:47:23 10° N 21:53:27 66° E 21:55:01 48° SE
Cosmos 220 Rocket 3.9 21:53:48 81° ENE 21:53:48 81° ENE 21:58:00 10° NNE
Cosmos 1515 Rocket 4.1 21:54:34 45° E 21:54:34 45° E 21:58:27 10° NNE
Cosmos 1328 Rocket 3.5 21:56:13 77° W 21:56:16 77° W 22:00:38 10° N
SL-8 R/B 3.9 21:52:44 10° W 21:57:30 71° NNW 22:02:16 10° ENE
USA 234 3.7 21:51:34 12° ESE 21:57:31 61° NNE 22:03:58 10° NW
Spot 4 3.9 21:58:25 61° SW 21:58:45 63° WSW 22:03:29 10° NNW
ALOS 2 2.5 21:58:50 86° SW 21:58:52 86° WSW 22:03:17 10° NNW
H-2A R/B 3.4 22:02:30 37° W 22:02:30 37° W 22:06:10 10° NNW
Meteor 2-4 Rocket 4.1 22:00:28 43° SW 22:02:16 62° WNW 22:08:10 10° N
Cosmos 1470 Rocket 3.5 22:00:12 10° N 22:04:42 84° E 22:04:42 84° E
BREEZE-M DEB (TANK) 3.9 22:07:51 46° E 22:07:51 46° E 22:13:24 10° ENE
Lacrosse 4 Rocket 1.7 22:06:32 10° NNW 22:10:33 56° ENE 22:10:34 56° ENE
Cosmos 1092 Rocket 4.5 22:10:25 36° SW 22:12:40 52° WNW 22:18:50 10° N
Cosmos 1818 3.6 22:13:02 60° SE 22:13:19 61° ESE 22:18:44 10° NE
Cosmos 1666 Rocket 4.4 22:10:26 10° NNW 22:14:23 38° W 22:14:23 38° W
ARIANE 5 R/B 4.4 22:16:04 19° W 22:16:09 19° W 22:19:19 10° NW
Cosmos 1633 Rocket 3.7 22:14:00 10° NNW 22:18:08 43° W 22:18:08 43° W
Cosmos 1656 3.5 22:12:43 10° NNW 22:18:12 86° WSW 22:19:03 65° SSE
Cosmos 1842 3.8 22:22:35 51° NNE 22:22:35 51° NNE 22:25:29 10° NNE
Cosmos 1066 Rocket 4.3 22:21:45 53° SW 22:23:05 73° WNW 22:28:58 10° N
USA 59 Rocket 0.3 22:19:08 10° NW 22:22:59 65° WSW 22:22:59 65° WSW
NOSS 2-1 (E) 3.8 22:20:00 10° NW 22:23:50 64° WSW 22:23:50 64° WSW
Cosmos 1992 Rocket 4.2 22:20:23 10° NNW 22:25:29 55° WSW 22:25:48 54° WSW
H-2A R/B 2.1 22:21:31 10° NNE 22:25:53 74° E 22:25:53 74° E
Cosmos 1697 Rocket 3.3 22:23:35 10° NNW 22:29:04 51° ENE 22:31:18 33° ESE
Cosmos 1908 4.1 22:26:29 10° N 22:29:17 41° NE 22:29:17 41° NE
Cosmos 1933 Rocket 3.5 22:25:45 10° N 22:30:01 80° ENE 22:30:01 80° ENE
Cosmos 1766 4.3 22:28:04 10° NNW 22:30:52 37° WNW 22:30:52 37° WNW
Cosmos 1707 3.3 22:34:21 51° NNE 22:34:21 51° NNE 22:37:13 10° NNE
Cosmos 1980 Rocket 3.8 22:29:25 10° N 22:34:26 30° NE 22:38:51 12° ESE
Cosmos 1470 3.2 22:31:54 10° N 22:34:54 56° N 22:34:54 56° N
NOSS 2-1 (D) 4.3 22:31:42 10° NW 22:34:55 44° W 22:34:55 44° W
Cosmos 2266 Rocket 3.9 22:35:15 53° SSE 22:36:41 73° E 22:42:53 10° NNE
Cosmos 1607 4.4 22:39:11 43° SE 22:40:09 46° ESE 22:46:19 10° NE
KORONAS-FOTON 4.4 22:43:13 52° NNW 22:43:13 52° NNW 22:46:11 10° N
In-Cosmos 22 4.3 22:51:47 55° SSE 22:52:58 71° E 22:58:44 10° NNE
Cosmos 2360 4.1 22:49:23 10° NNW 22:55:07 76° WSW 22:56:07 60° S
Helios 1A Rocket 3.8 23:00:20 36° E 23:00:45 37° ENE 23:04:22 10° N
Cosmos 2228 Rocket 3.7 23:01:24 43° ESE 23:01:40 44° E 23:05:56 10° NNE
NOSS 3-3 (A) 4.0 22:59:40 40° WSW 23:01:41 67° NW 23:08:06 10° NE
Cosmos 1707 Rocket 4.4 23:03:45 39° ESE 23:04:05 40° E 23:08:14 10° NNE
Lacrosse 5 rocket 4.2 23:01:08 10° NW 23:04:05 18° N 23:06:56 10° NE
USA 267 3.7 22:58:21 10° NE 23:04:45 59° NNW 23:10:42 12° WSW
Cosmos 1023 Rocket 4.4 23:04:07 63° SW 23:04:58 84° WNW 23:10:15 10° NNE
Cosmos 1140 Rocket 3.4 23:05:26 64° SSW 23:06:16 86° WNW 23:11:32 10° NNE
Cosmos 2251 Rocket 3.6 23:05:57 55° SE 23:06:40 60° ESE 23:11:51 10° NNE
Cosmos 1674 4.3 23:07:50 24° WNW 23:07:50 24° WNW 23:10:15 10° NNW
Cosmos 2082 Rocket 3.1 23:08:47 32° SE 23:09:55 35° ESE 23:15:05 10° NE
SL-19 R/B 4.3 23:10:57 10° NNE 23:15:22 87° ESE 23:15:23 87° ESE
NOSS 3-4 (A) 4.1 23:11:51 10° NW 23:18:41 71° NE 23:26:36 10° SE
NOSS 3-4 (C) 4.1 23:11:54 10° NW 23:18:44 70° NE 23:26:39 10° SE
Cosmos 1833 Rocket 2.9 23:17:10 44° WSW 23:18:45 63° WNW 23:24:21 10° NNE
Cosmos 407 Rocket 3.4 23:18:38 61° S 23:19:36 85° ESE 23:24:54 10° NNE
Iridium 51 4.3 23:19:48 77° W 23:19:48 77° W 23:24:08 10° N
Cosmos 1300 3.1 23:16:19 10° N 23:19:33 52° ENE 23:19:33 52° ENE
Meteor 2-10 Rocket 3.8 23:14:33 10° N 23:20:25 79° E 23:22:17 45° SSE
Cosmos 1190 Rocket 4.4 23:21:55 44° SE 23:22:56 50° ESE 23:28:02 10° NNE
Cosmos 44 Rocket 3.2 23:20:01 10° NW 23:24:58 86° NE 23:26:07 53° SE
Cosmos 2315 Rocket 4.0 23:19:31 10° NNW 23:25:46 69° W 23:27:37 46° SSW
ATLAS CENTAUR R/B 4.3 23:12:50 10° NW 23:26:47 83° SW 23:35:52 10° SE
S3M 4.5 23:20:45 10° NNW 23:26:48 47° W 23:28:27 39° SW
Okean 1-7 4.4 23:26:56 26° ESE 23:27:51 28° E 23:31:32 10° NNE
Cosmos 2285 Rocket 4.1 23:29:14 42° SW 23:31:25 68° WNW 23:37:45 10° NNE
IDEFIX/ARIANE 42P 3.9 23:28:42 10° NE 23:33:18 30° E 23:35:21 23° SE
Cosmos 1400 Rocket 2.7 23:34:57 86° W 23:34:58 86° W 23:39:00 10° N
GP-B 3.9 23:31:36 10° NNW 23:35:39 37° W 23:35:54 37° W
Cosmos 1763 Rocket 3.5 23:34:01 10° NNW 23:39:22 81° ENE 23:41:20 40° SSE
SL-8 R/B 4.0 23:35:29 10° WNW 23:40:15 65° N 23:45:01 10° E
USA 234 3.4 23:38:50 40° S 23:40:39 49° SW 23:46:59 10° WNW
CZ-2D R/B 3.6 23:38:32 10° NE 23:43:14 28° E 23:45:55 19° SE
Cosmos 1733 Rocket 2.9 23:42:13 10° NNW 23:46:33 74° W 23:46:57 67° SW
Lacrosse 4 Rocket 3.8 23:45:59 10° WNW 23:46:29 12° WNW 23:46:29 12° WNW
Meteor 1-23 Rocket 4.4 23:47:12 43° SW 23:48:47 59° WNW 23:54:21 10° N
Aureole 3 3.4 23:50:44 51° N 23:50:44 51° N 23:53:03 10° N
Okean 3 3.2 23:50:23 69° SSE 23:50:49 80° E 23:54:56 10° N
Cosmos 1356 Rocket 3.1 23:54:26 72° S 23:54:49 89° ESE 23:58:56 10° N
Cosmos 1346 Rocket 2.6 23:51:37 10° N 23:55:31 82° E 23:55:55 69° SSE
